SCP
1 1 1 0 0 0 0 1 1 0 0 0 0 0 0 0 0 0 0 0 0 0 0 0 0 0 0 0 0 0 0 0 0 0 0 0 0 0
1 1 1 1 0 0 1 1 1 1 0 0 0 0 0 0 0 0 0 0 0 0 0 0 0 0 0 0 0 0 0 0 0 0 0 0 0 0
1 1 1 1 1 1 1 1 1 1 1 0 0 0 0 0 0 0 0 0 0 0 0 0 0 0 0 0 0 0 0 0 0 0 0 0 0 0
1 1 1 1 1 1 1 1 1 1 1 0 0 0 0 0 0 0 0 0 0 0 0 0 0 0 0 0 0 0 0 0 0 0 0 0 0 0
1 1 1 1 1 1 1 1 1 1 1 1 0 0 0 0 0 0 0 0 0 0 0 0 0 0 0 0 0 0 0 0 0 0 0 0 0 0
1 1 1 1 1 1 1 1 1 1 1 1 0 0 0 0 0 0 0 0 0 0 0 0 0 0 0 0 0 0 0 0 0 0 0 0 0 0
1 1 1 1 1 1 1 1 1 1 1 0 0 0 0 0 0 0 0 0 0 0 0 0 0 0 0 0 0 0 0 0 0 0 0 0 0 0
1 1 1 1 0 0 0 0 0 0 0 0 0 0 0 0 0 0 0 0 0 0 0 0 0 0 0 0 0 0 0 0 0 0 0 0 0 0
1 1 1 1 0 0 0 0 0 0 0 0 0 0 0 0 0 0 0 0 0 0 0 0 0 0 0 0 0 0 0 0 0 0 0 0 0 0
1 1 1 1 1 1 1 1 1 0 0 0 0 0 0 0 0 0 0 0 0 0 0 0 0 0 0 0 0 0 0 0 0 0 0 0 0 0
1 1 1 1 1 0 1 1 1 1 0 0 0 0 0 0 0 0 0 0 0 0 0 0 0 0 0 0 0 0 0 0 0 0 0 0 0 0
1 1 1 1 0 0 1 1 1 1 0 0 0 0 0 0 0 0 0 0 0 0 0 0 0 0 0 0 0 0 0 0 0 0 0 0 0 0
1 1 1 0 0 0 0 1 1 1 1 0 0 0 0 0 0 0 0 0 0 0 0 0 0 0 0 0 0 0 0 0 0 0 0 0 0 0
1 1 0 0 0 0 0 0 0 0 0 1 1 0 0 0 0 0 0 0 0 0 0 0 0 0 0 0 0 0 0 0 0 0 0 0 0 0
1 0 0 0 0 0 0 0 0 0 0 1 1 1 0 0 0 0 0 0 0 0 0 0 0 0 0 0 0 0 0 0 0 0 0 0 0 0
0 0 0 0 0 0 0 0 0 0 0 1 1 1 0 0 0 0 0 0 0 0 0 0 0 0 0 0 0 0 0 0 0 0 0 0 0 0
0 0 0 0 0 0 0 0 0 0 0 0 0 0 0 0 0 0 0 0 0 0 0 0 0 0 0 0 0 0 0 0 0 0 0 0 0 0
0 0 0 0 0 0 0 0 0 0 0 0 0 0 0 0 0 0 0 0 0 0 0 0 0 0 0 0 0 0 0 0 0 0 0 0 0 0
0 0 1 1 1 0 0 0 0 0 1 1 0 0 0 0 0 0 0 0 0 0 0 0 0 0 0 0 0 0 0 0 0 0 0 0 0 0
0 0 1 1 1 0 0 0 0 0 0 1 0 0 0 0 0 0 0 0 0 0 0 0 0 0 0 0 0 0 0 0 0 0 0 0 0 0
0 0 0 0 0 0 0 0 0 0 0 0 0 0 0 0 0 0 0 0 0 0 0 0 0 0 0 0 0 0 0 0 0 0 0 0 0 0
0 0 0 0 0 0 0 0 0 0 0 0 0 0 0 0 0 0 0 0 0 0 0 0 0 0 0 0 0 0 0 0 0 0 0 0 0 0
0 0 0 0 0 0 0 0 0 0 0 0 0 0 0 0 0 0 0 0 0 0 0 0 0 0 0 0 0 0 0 0 0 0 0 0 0 0
Wind_Speed
2 2 2 2 1 1 2 2 3 2 2 2 2 3 3 4 5 4 5 7 7 6 6 6 6 6 6 6 6 6 5 4 5 5 5 5 5 5
1 1 1 1 1 1 1 2 2 2 2 2 2 3 3 4 5 4 6 9 8 7 6 6 7 7 6 6 6 7 7 7 7 7 7 6 5 5
1 1 1 1 1 1 0 1 1 2 3 3 3 3 3 3 4 4 4 4 4 7 7 7 7 6 6 7 7 7 7 7 7 7 7 6 5 5
2 1 1 1 1 0 0 1 1 2 4 4 4 3 3 3 4 3 3 4 4 7 7 7 6 6 6 6 6 6 6 6 6 6 7 6 6 6
1 1 1 1 1 0 1 1 1 2 3 4 4 3 3 3 3 2 3 2 4 6 7 6 6 6 5 5 5 5 6 6 6 6 6 6 6 6
1 1 1 1 1 1 1 1 2 3 3 4 4 4 3 3 3 2 2 2 2 4 4 6 6 6 5 5 5 5 5 5 5 5 5 5 5 5
1 2 2 3 3 1 1 2 2 2 3 3 3 3 3 3 3 3 3 2 2 2 3 3 3 2 3 4 4 5 5 5 5 4 4 4 4 4
2 2 3 3 4 4 4 4 3 3 3 3 3 4 4 3 3 3 3 3 2 2 2 2 4 3 3 2 5 6 6 5 5 4 4 4 4 4
2 2 2 2 3 3 4 5 3 3 3 2 2 3 4 4 4 3 2 2 2 3 2 2 2 3 2 4 9 8 7 6 5 5 5 4 4 4
2 2 3 3 2 3 3 3 3 3 3 3 2 2 2 3 3 3 3 2 1 2 3 2 2 2 3 3 8 9 8 7 6 6 5 6 5 5
3 3 3 3 4 5 4 3 3 3 3 4 4 4 4 4 3 2 2 2 2 2 2 2 1 2 2 3 6 10 9 9 8 7 6 6 6 6
3 3 3 4 6 5 4 3 3 3 3 4 3 4 5 5 5 3 2 2 2 2 2 2 2 2 2 2 3 5 6 8 9 8 7 7 6 3
3 3 3 6 7 6 4 3 3 3 3 4 4 4 4 4 4 4 3 2 2 1 2 2 2 1 1 1 2 3 4 4 5 5 7 8 7 5
2 2 3 7 6 5 4 3 4 3 3 3 3 3 4 4 4 4 4 3 2 2 1 2 1 2 2 1 1 2 3 4 4 4 4 6 7 8
1 2 4 7 6 5 6 6 5 4 4 3 3 3 3 3 3 3 3 3 2 2 2 2 2 2 2 2 2 2 2 3 3 3 4 4 4 4
2 2 4 6 5 5 4 5 5 4 4 3 2 2 2 3 3 3 3 4 3 2 2 2 2 2 1 2 2 2 1 2 2 3 3 3 3 4
4 3 3 4 5 4 4 4 4 4 4 3 3 3 3 3 3 3 3 3 3 3 2 2 2 2 2 1 1 1 1 1 2 2 2 2 2 3
4 4 4 4 5 5 5 4 4 4 4 3 3 3 3 4 3 3 3 3 3 3 3 3 3 1 1 2 3 3 2 2 2 2 2 3 3 2
4 4 4 4 4 4 4 4 4 4 4 4 4 4 3 3 4 4 3 3 3 3 3 3 3 3 3 4 3 4 3 2 1 2 2 2 3 2
5 5 4 4 4 4 4 3 3 3 3 4 4 4 3 3 3 4 4 4 4 3 3 3 3 4 4 4 2 2 5 3 2 2 2 1 1 1
5 5 4 4 4 3 3 3 3 3 3 4 4 4 4 3 3 3 3 4 4 3 4 4 4 5 3 2 2 2 2 5 4 3 2 2 2 2
5 5 4 4 4 3 3 3 3 3 4 3 3 3 3 3 4 4 3 4 4 4 4 3 3 3 3 3 3 3 2 3 4 5 5 4 3 3
4 4 3 4 3 3 3 3 4 3 3 3 3 3 3 3 3 3 3 3 3 3 3 3 2 2 3 3 3 3 3 3 2 2 4 7 9 8
Wind_Direction
248 238 239 256 240 220 179 170 174 175 164 143 120 104 106 102 117 115 107 103 102 94 87 80 72 66 65 68 71 71 77 90 95 90 90 94 96 94
217 245 252 264 246 241 206 187 189 171 145 131 121 121 110 124 122 115 112 113 104 99 92 87 81 77 74 76 78 77 80 84 87 89 91 87 86 88
231 219 212 262 294 286 213 161 147 133 134 125 116 119 114 115 125 127 133 129 116 112 108 99 93 88 83 79 78 79 84 90 90 91 89 84 83 86
230 219 235 230 202 271 108 133 124 129 140 138 138 139 142 144 139 145 140 137 128 128 123 114 107 99 93 89 88 87 87 91 93 93 90 85 82 81
212 209 222 212 203 180 141 128 129 132 133 143 145 140 150 154 144 145 135 125 137 135 132 127 123 116 110 106 102 99 96 96 94 90 86 83 80 77
198 190 192 173 185 183 169 136 128 125 136 144 144 149 151 158 152 160 144 154 149 148 140 141 142 139 134 129 128 121 114 111 109 106 101 95 89 84
180 163 146 119 106 99 132 132 140 143 150 153 153 147 153 164 179 185 167 166 161 153 149 157 155 154 159 161 153 142 137 137 136 134 133 126 118 112
183 163 141 129 121 116 110 106 112 153 162 167 164 166 169 173 182 184 167 170 180 175 164 186 170 169 170 155 152 153 157 159 160 161 159 156 151 145
199 193 193 148 133 132 130 133 128 141 152 165 170 183 173 175 175 186 180 181 187 177 172 205 173 162 162 152 159 167 172 174 177 179 181 182 183 179
197 186 169 162 173 147 147 145 155 170 180 181 168 164 160 162 176 186 185 170 173 183 162 193 192 175 165 162 176 177 181 187 193 196 196 197 197 199
197 199 186 171 162 166 166 165 169 161 140 143 142 146 142 151 160 164 183 185 199 191 172 183 197 170 171 171 183 187 189 195 201 206 209 210 210 207
191 190 188 175 166 173 179 176 187 183 166 160 164 174 177 178 182 186 196 205 213 198 174 176 197 180 191 180 173 185 202 208 209 212 212 212 209 206
197 185 180 169 169 177 183 189 192 181 197 200 199 189 183 178 182 193 202 207 211 217 163 167 201 211 190 178 183 190 193 197 201 213 216 215 211 202
211 176 161 161 160 171 189 204 195 193 214 216 209 189 182 180 182 184 187 189 181 197 187 164 197 198 203 213 214 193 195 198 195 197 197 203 215 220
183 141 158 168 169 185 207 211 207 219 218 214 205 195 181 177 170 171 177 179 196 237 215 185 192 207 209 222 227 206 197 201 195 193 188 190 198 204
185 178 174 184 202 207 202 207 216 220 215 209 198 192 178 176 180 179 186 188 199 218 219 187 181 193 227 245 240 233 209 194 190 190 184 191 196 197
165 186 194 195 203 204 204 209 209 205 211 213 207 200 198 194 187 182 185 187 195 200 193 194 202 205 219 236 253 247 222 226 202 188 188 206 215 206
168 206 210 207 212 209 204 201 202 207 204 202 211 208 207 203 191 186 187 192 196 196 189 182 173 180 238 264 235 233 234 231 226 203 200 211 227 220
186 219 224 223 220 214 210 207 206 201 196 198 207 212 211 208 197 197 196 193 198 199 192 182 181 189 219 244 250 222 220 223 213 220 226 224 229 217
214 225 227 224 221 218 216 215 208 197 201 206 210 214 213 212 207 204 199 199 199 199 196 190 196 204 217 230 232 229 213 211 212 222 235 232 224 168
221 230 230 224 223 215 206 200 202 206 210 209 208 211 211 213 214 210 204 204 205 204 207 211 213 210 211 204 242 240 217 211 212 210 215 226 237 228
229 229 225 219 212 210 203 203 213 213 210 212 211 211 212 213 215 212 213 214 210 211 216 214 192 192 201 209 226 229 227 220 227 233 238 226 214 223
239 241 233 226 214 206 201 208 219 223 213 212 213 215 217 216 219 209 214 228 218 217 210 207 203 202 208 212 225 229 228 226 212 212 246 240 232 236